GW0151 Weather Reports


Display with metric or nautical units.
time (UTC)temp
F
wind
direction
speed
MPH
gust
MPH
rain 1hr
in
rain 24hr
in
rain mn
in
humidity
%
barometer
mb
20260508174553 64 269 6.0 18.0 0.00 0.00 0.00 42 1016.4
20260508173039 64 281 5.0 14.0 0.00 0.00 0.00 40 1016.5
20260508171537 63 115 2.0 14.0 0.00 0.00 0.00 38 1016.6
20260508170035 64 155 4.0 14.0 0.00 0.00 0.00 36 1016.9
20260508164542 60 23 6.0 13.0 0.00 0.00 0.00 39 1017.2
20260508163042 62 137 1.0 11.0 0.00 0.00 0.00 38 1017.3
20260508161540 61 235 1.0 11.0 0.00 0.00 0.00 38 1017.5
20260508160036 60 235 2.0 7.0 0.00 0.00 0.00 41 1017.7
20260508154539 61 240 4.0 10.0 0.00 0.00 0.00 38 1018.1
20260508153044 62 214 3.0 8.0 0.00 0.00 0.00 38 1017.9
20260508151542 59 203 4.0 12.0 0.00 0.00 0.00 40 1018.1
20260508150054 60 0 2.0 10.0 0.00 0.00 0.00 41 1018.0
20260508144538 60 221 5.0 10.0 0.00 0.00 0.00 40 1018.2
20260508143049 57 360 1.0 8.0 0.00 0.00 0.00 39 1018.2
20260508141535 56 360 1.0 4.0 0.00 0.00 0.00 50 1018.3
20260508140050 56 360 1.0 4.0 0.00 0.00 0.00 56 1018.2
20260508134542 53 360 2.0 5.0 0.00 0.00 0.00 61 1018.2
20260508133037 52 360 2.0 5.0 0.00 0.00 0.00 66 1018.3
20260508131543 50 360 2.0 6.0 0.00 0.00 0.00 72 1018.3
20260508130043 49 360 3.0 8.0 0.00 0.00 0.00 75 1018.2
20260508124535 48 360 2.0 9.0 0.00 0.00 0.00 78 1018.3
20260508123040 47 360 3.0 6.0 0.00 0.00 0.00 82 1018.1
20260508121539 46 360 2.0 5.0 0.00 0.00 0.00 88 1018.0
20260508120045 44 0 0.0 0.0 0.00 0.00 0.00 93 1017.9
20260508114542 42 0 0.0 0.0 0.00 0.04 0.00 97 1017.6
20260508113042 39 0 0.0 0.0 0.00 0.04 0.00 96 1017.5
20260508111541 38 0 0.0 0.0 0.00 0.04 0.00 94 1017.0
20260508110035 38 0 0.0 0.0 0.00 0.04 0.00 94 1016.8
20260508104537 38 0 0.0 0.0 0.00 0.06 0.00 93 1016.5
20260508103044 39 0 0.0 0.0 0.00 0.06 0.00 93 1016.3
20260508101542 40 0 0.0 0.0 0.00 0.06 0.00 93 1015.9
20260508100041 40 0 0.0 2.0 0.00 0.06 0.00 93 1015.8
20260508094537 41 360 1.0 3.0 0.00 0.06 0.00 93 1015.7
20260508093038 41 0 0.0 3.0 0.00 0.06 0.00 93 1015.7
20260508091536 42 360 0.0 3.0 0.00 0.06 0.00 92 1015.6
20260508090045 43 0 0.0 2.0 0.00 0.06 0.00 91 1015.6
20260508084546 43 0 0.0 4.0 0.00 0.06 0.00 91 1015.4
20260508083051 44 360 2.0 5.0 0.00 0.06 0.00 89 1015.4
20260508081546 45 360 1.0 5.0 0.00 0.06 0.00 87 1015.4
20260508080053 46 0 3.0 9.0 0.00 0.06 0.00 86 1015.3
20260508074537 47 360 4.0 11.0 0.00 0.06 0.00 84 1015.2
20260508073040 47 360 4.0 9.0 0.00 0.06 0.00 84 1015.0
20260508071542 47 360 4.0 10.0 0.00 0.06 0.00 83 1014.9
20260508070051 48 360 3.0 10.0 0.00 0.06 0.00 84 1014.8
20260508064548 48 360 5.0 13.0 0.00 0.07 0.00 84 1014.6
20260508063043 48 360 7.0 14.0 0.00 0.07 0.00 85 1014.6
20260508061542 48 360 5.0 13.0 0.00 0.07 0.00 85 1014.7
20260508060040 49 360 7.0 15.0 0.00 0.07 0.00 85 1014.7
20260508054545 49 360 8.0 14.0 0.00 0.07 0.00 85 1014.9
20260508053040 49 360 7.0 11.0 0.00 0.07 0.00 85 1014.8
20260508051539 49 360 10.0 17.0 0.00 0.07 0.00 85 1014.9
20260508050111 48 360 7.0 13.0 0.00 0.07 0.00 86 1015.1
20260508044543 48 360 6.0 13.0 0.00 0.08 0.00 89 1014.9
20260508043037 47 360 6.0 14.0 0.00 0.08 0.00 90 1014.9
20260508041535 47 360 7.0 12.0 0.00 0.08 0.00 92 1014.9
20260508040052 46 360 6.0 9.0 0.00 0.08 0.00 93 1015.3
20260508034545 46 360 3.0 6.0 0.00 0.09 0.08 93 1015.4
20260508033037 46 360 1.0 5.0 0.00 0.09 0.08 93 1015.5
20260508031536 46 360 0.0 3.0 0.00 0.09 0.08 92 1015.5
20260508030036 46 360 1.0 3.0 0.00 0.09 0.08 91 1015.4
20260508024542 47 360 1.0 3.0 0.00 0.10 0.08 89 1015.3
20260508023043 48 360 2.0 5.0 0.00 0.10 0.08 88 1015.0
20260508021541 48 360 4.0 9.0 0.00 0.10 0.08 88 1014.9
20260508020037 48 360 3.0 8.0 0.00 0.10 0.08 88 1014.6
20260508014536 49 360 4.0 9.0 0.00 0.13 0.08 87 1014.3
20260508013042 49 360 5.0 8.0 0.00 0.13 0.08 85 1014.2
20260508011542 50 360 4.0 12.0 0.00 0.13 0.08 83 1013.9
20260508010040 50 360 2.0 8.0 0.00 0.13 0.08 82 1013.7
20260508004551 50 360 2.0 5.0 0.00 0.14 0.08 82 1013.6
20260508003048 50 360 2.0 5.0 0.00 0.14 0.08 81 1013.6
20260508001542 51 360 2.0 8.0 0.00 0.14 0.08 80 1013.6
20260508000041 52 360 4.0 11.0 0.00 0.14 0.08 79 1013.4
20260507234547 52 360 3.0 10.0 0.00 0.17 0.08 79 1013.5
20260507233039 52 360 3.0 6.0 0.00 0.17 0.08 78 1013.6
20260507231546 52 360 4.0 11.0 0.00 0.17 0.08 78 1013.7
20260507230047 52 360 4.0 12.0 0.00 0.17 0.08 81 1013.5
20260507224542 52 360 3.0 11.0 0.00 0.17 0.08 82 1013.4
20260507223055 52 360 6.0 14.0 0.00 0.17 0.08 82 1013.4
20260507221539 53 360 3.0 12.0 0.00 0.17 0.08 82 1013.1
20260507220043 52 360 6.0 15.0 0.00 0.17 0.08 82 1012.9
20260507214544 52 360 10.0 17.0 0.00 0.17 0.08 81 1012.8
20260507213044 54 360 9.0 21.0 0.00 0.17 0.08 81 1012.5
20260507211547 56 13 6.0 13.0 0.00 0.17 0.08 78 1012.0
20260507210105 57 71 5.0 18.0 0.00 0.17 0.08 75 1011.7
20260507204543 57 9 5.0 11.0 0.00 0.17 0.08 76 1011.4
20260507203043 58 49 9.0 19.0 0.00 0.17 0.08 75 1011.5
20260507201543 58 86 5.0 12.0 0.00 0.17 0.08 76 1011.5
20260507200050 58 338 6.0 15.0 0.00 0.17 0.08 76 1011.3
20260507194548 58 54 3.0 13.0 0.00 0.17 0.08 77 1011.5
20260507193044 59 0 3.0 13.0 0.00 0.17 0.08 77 1011.4
20260507191547 59 5 5.0 10.0 0.00 0.17 0.08 76 1011.2
20260507190050 60 360 1.0 14.0 0.00 0.17 0.08 77 1011.4
20260507184546 61 15 5.0 17.0 0.00 0.17 0.08 76 1011.7
20260507183043 61 12 5.0 19.0 0.00 0.17 0.08 76 1011.3
20260507181545 64 45 7.0 16.0 0.00 0.17 0.08 74 1011.2
20260507180043 63 339 7.0 16.0 0.00 0.17 0.08 73 1011.2